DW3383 Weather Reports


time (UTC)temp
F
wind
direction
speed
knots
gust
knots
rain 1hr
in
rain 24hr
in
rain mn
in
humidity
%
barometer
mb
20260901100804 45 272 2.6 4.3 0.00 0.00 0.00 95 1001.9
20260901100305 45 270 2.6 5.2 0.00 0.00 0.00 95 1001.9
20260901090805 45 273 2.6 2.6 0.00 0.00 0.00 93 1001.5
20260901090305 46 272 1.7 4.3 0.00 0.00 0.00 93 1001.4
20260901080805 46 250 1.7 2.6 0.00 0.00 0.00 91 1001.1
20260901080304 46 349 1.7 2.6 0.00 0.00 0.00 91 1001.1
20260901070812 47 232 0.0 1.7 0.00 0.00 0.00 87 1000.5
20260901060805 48 36 1.7 2.6 0.00 0.00 0.00 83 999.9
20260901060305 48 14 2.6 5.2 0.00 0.00 0.00 81 999.9
20260901050804 49 314 2.6 5.2 0.00 0.00 0.00 82 999.3
20260901050304 49 291 2.6 5.2 0.00 0.00 0.00 83 999.2
20260901040804 51 167 2.6 4.3 0.00 0.00 0.00 79 998.7
20260901040304 51 323 1.7 4.3 0.00 0.00 0.00 79 998.7
20260901030804 53 46 0.9 2.6 0.00 0.00 0.00 74 998.3
20260901030305 53 75 0.9 4.3 0.00 0.00 0.00 73 998.2
20260901020804 54 78 0.9 1.7 0.00 0.00 0.00 74 997.9
20260901010804 54 36 0.9 1.7 0.00 0.00 0.00 76 998.2
20260901010305 54 67 0.0 2.6 0.00 0.00 0.00 76 998.2
20260901000804 55 8 0.0 1.7 0.00 0.00 0.00 73 998.5
20260901000305 55 90 0.9 2.6 0.00 0.00 0.00 74 998.5
20260831230804 54 89 0.9 2.6 0.00 0.00 0.00 76 998.9
20260831230305 54 4 0.0 2.6 0.00 0.00 0.00 75 999.0
20260831220804 54 110 0.0 1.7 0.00 0.00 0.00 76 999.3
20260831220304 54 3 0.9 5.2 0.00 0.00 0.00 74 999.3
20260831210805 53 37 0.9 1.7 0.00 0.00 0.00 78 999.8
20260831210304 53 59 0.0 4.3 0.00 0.00 0.00 77 999.8
20260831200804 52 57 0.9 1.7 0.00 0.00 0.00 79 1000.3
20260831200305 52 32 0.9 5.2 0.00 0.00 0.00 79 1000.3
20260831190805 50 346 1.7 4.3 0.00 0.00 0.00 83 1001.0
20260831180305 46 268 2.6 5.2 0.00 0.00 0.00 91 1001.7
20260831170804 44 358 1.7 2.6 0.00 0.00 0.00 95 1002.2
20260831170304 44 333 1.7 5.2 0.00 0.00 0.00 95 1002.3
20260831160805 43 325 2.6 4.3 0.00 0.00 0.00 96 1002.6
20260831160304 43 281 4.3 5.2 0.00 0.00 0.00 97 1002.7
20260831150804 38 279 2.6 4.3 0.00 0.00 0.00 99 1003.4
20260831150304 38 296 2.6 4.3 0.00 0.00 0.00 99 1003.5
20260831140804 38 286 1.7 4.3 0.00 0.01 0.00 98 1004.0
20260831140305 38 277 2.6 6.1 0.00 0.01 0.00 98 1004.1
20260831130804 35 279 2.6 4.3 0.00 0.02 0.00 98 1004.5
20260831130304 35 158 3.5 5.2 0.00 0.02 0.00 98 1004.6
20260831120303 31 264 1.7 2.6 0.00 0.04 0.00 98 1005.5
20260831110803 31 278 1.7 2.6 0.00 0.09 0.00 98 1006.4
20260831110303 31 279 1.7 4.3 0.00 0.18 0.00 98 1006.5